Date String (YYYY-MM-DD hh:mm:ss) UTC,Instrument flags,Ambient pressure (hPa),Sample flow (lpm),Bypass flow (lpm),Sample temperature (°C),Ambient temperature (°C),ASC tube jacket temperature (°C),LED temperature (°C),Box temperature (°C),Sample RH (%),Span deviation,Mass concentration (μg/m³),Mass concentration (μg/m³),Mass concentration (μg/m³)
DateTimeUTC,F1_M11,P_M11,Q1_M11,Q2_M11,T1_M11,T2_M11,T3_M11,T4_M11,T5_M11,U1_M11,ZSPAN_M11,X0_M11,X2_M11,X1_M11
2022-12-15 02:00:00,,0817.3,5.00,0.00,21.0,20.7,00.0,29.7,22.8,06.8,0000.0,0006.08,0002.21,0001.75
2022-12-15 02:01:00,,0817.3,5.01,0.00,21.0,20.4,00.0,29.8,22.7,06.9,0000.0,0006.15,0002.25,0001.76
2022-12-15 02:02:00,,0817.2,5.00,0.00,21.0,20.1,00.0,29.8,22.7,06.9,0000.0,0004.92,0002.31,0001.78
2022-12-15 02:03:00,,0817.1,5.00,0.00,20.9,19.8,00.0,29.8,22.6,06.9,0000.0,0003.97,0002.34,0001.79
2022-12-15 02:04:00,,0817.2,5.00,0.00,20.9,19.6,00.0,29.8,22.6,07.0,0000.0,0003.92,0002.31,0001.79
2022-12-15 02:05:00,,0817.2,4.99,0.00,20.9,19.5,00.0,29.8,22.5,07.0,0000.0,0005.15,0002.33,0001.80
2022-12-15 02:06:00,,0817.2,4.99,0.00,20.9,19.4,00.0,29.8,22.5,07.1,0000.0,0005.22,0002.31,0001.79
2022-12-15 02:07:00,,0817.2,4.99,0.00,20.9,19.3,00.0,29.8,22.5,07.1,0000.0,0005.30,0002.29,0001.79
2022-12-15 02:08:00,,0817.2,5.03,0.00,20.8,19.2,00.0,29.8,22.5,07.0,0000.0,0005.24,0002.31,0001.79
2022-12-15 02:09:00,,0817.3,4.97,0.00,20.8,19.2,00.0,29.8,22.5,07.0,0000.0,0005.27,0002.33,0001.78
2022-12-15 02:10:00,,0817.3,5.05,0.00,20.9,20.2,00.0,29.7,22.7,07.1,0000.0,0005.21,0002.34,0001.79
2022-12-15 02:11:00,,0817.3,4.96,0.00,21.0,21.4,00.0,29.7,23.0,07.0,0000.0,0005.21,0002.33,0001.79
2022-12-15 02:12:00,,0817.3,5.01,0.00,21.1,21.4,00.0,29.8,23.1,06.8,0000.0,0005.24,0002.34,0001.79
2022-12-15 02:13:00,,0817.3,4.99,0.00,21.2,20.9,00.0,29.8,23.0,06.9,0000.0,0005.31,0002.32,0001.77
2022-12-15 02:14:00,,0817.4,5.00,0.00,21.1,20.4,00.0,29.9,22.9,06.9,0000.0,0005.15,0002.27,0001.76
2022-12-15 02:15:00,,0817.3,5.00,0.00,21.1,20.1,00.0,29.9,22.8,06.8,0000.0,0005.12,0002.26,0001.74
2022-12-15 02:16:00,,0817.3,4.99,0.00,21.1,19.9,00.0,29.9,22.8,06.8,0000.0,0005.26,0002.26,0001.71
2022-12-15 02:17:00,,0817.4,4.99,0.00,21.1,19.8,00.0,29.9,22.7,06.8,0000.0,0004.92,0002.23,0001.69
2022-12-15 02:18:00,,0817.3,5.03,0.00,21.0,19.6,00.0,29.9,22.7,06.7,0000.0,0004.85,0002.20,0001.67
2022-12-15 02:19:00,,0817.3,4.97,0.00,21.0,19.5,00.0,29.9,22.6,06.6,0000.0,0004.68,0002.14,0001.66
2022-12-15 02:20:00,,0817.4,4.99,0.00,21.0,19.5,00.0,29.9,22.6,06.7,0000.0,0004.62,0002.12,0001.64
2022-12-15 02:21:00,,0817.4,5.03,0.00,21.0,20.2,00.0,29.9,22.8,06.8,0000.0,0004.53,0002.09,0001.62
2022-12-15 02:22:00,,0817.5,4.99,0.00,21.2,21.3,00.0,29.9,23.1,06.7,0000.0,0004.68,0002.08,0001.61
2022-12-15 02:23:00,,0817.5,5.00,0.00,21.3,21.7,00.0,29.9,23.2,06.6,0000.0,0004.64,0002.05,0001.60
2022-12-15 02:24:00,,0817.5,5.00,0.00,21.3,21.3,00.0,30.0,23.2,06.6,0000.0,0004.52,0002.03,0001.58
2022-12-15 02:25:00,,0817.4,5.01,0.00,21.3,20.9,00.0,30.0,23.1,06.6,0000.0,0004.69,0002.04,0001.58
2022-12-15 02:26:00,,0817.5,4.97,0.00,21.3,20.6,00.0,30.0,23.1,06.6,0000.0,0005.57,0002.07,0001.58
2022-12-15 02:27:00,,0817.5,5.01,0.00,21.3,20.4,00.0,30.0,23.0,06.6,0000.0,0004.63,0002.05,0001.58
2022-12-15 02:28:00,,0817.4,5.00,0.00,21.3,20.2,00.0,30.1,23.0,06.5,0000.0,0004.42,0002.05,0001.57
2022-12-15 02:29:00,,0817.5,5.00,0.00,21.3,20.0,00.0,30.1,23.0,06.5,0000.0,0004.44,0002.07,0001.57
2022-12-15 02:30:00,,0817.4,5.04,0.00,21.3,20.0,00.0,30.1,22.9,06.5,0000.0,0004.39,0002.04,0001.56
2022-12-15 02:31:00,,0817.4,4.95,0.00,21.3,19.9,00.0,30.1,22.9,06.6,0000.0,0004.26,0002.01,0001.57
2022-12-15 02:32:00,,0817.4,5.05,0.00,21.2,19.9,00.0,30.1,22.9,06.5,0000.0,0004.23,0002.00,0001.57
2022-12-15 02:33:00,,0817.4,4.96,0.00,21.2,19.8,00.0,30.1,22.9,06.5,0000.0,0003.96,0001.98,0001.56
2022-12-15 02:34:00,,0817.4,5.00,0.00,21.2,19.8,00.0,30.1,22.9,06.5,0000.0,0003.91,0001.95,0001.55
2022-12-15 02:35:00,,0817.5,5.03,0.00,21.3,20.6,00.0,30.0,23.1,06.5,0000.0,0003.89,0001.94,0001.55
2022-12-15 02:36:00,,0817.5,5.00,0.00,21.4,21.7,00.0,30.0,23.3,06.5,0000.0,0003.90,0001.91,0001.54
2022-12-15 02:37:00,,0817.5,4.99,0.00,21.5,21.8,00.0,30.1,23.4,06.4,0000.0,0003.76,0001.89,0001.54
2022-12-15 02:38:00,,0817.5,5.01,0.00,21.5,21.4,00.0,30.2,23.4,06.4,0000.0,0003.92,0001.91,0001.54
2022-12-15 02:39:00,,0817.5,5.01,0.00,21.5,21.0,00.0,30.2,23.3,06.4,0000.0,0003.96,0001.93,0001.53
2022-12-15 02:40:00,,0817.5,4.97,0.00,21.5,20.8,00.0,30.2,23.2,06.3,0000.0,0003.92,0001.92,0001.53
2022-12-15 02:41:00,,0817.5,5.00,0.00,21.5,20.5,00.0,30.2,23.2,06.3,0000.0,0004.00,0001.98,0001.54
2022-12-15 02:42:00,,0817.5,5.04,0.00,21.5,20.4,00.0,30.2,23.2,06.3,0000.0,0004.17,0002.00,0001.54
2022-12-15 02:43:00,,0817.5,4.95,0.00,21.4,20.2,00.0,30.2,23.2,06.2,0000.0,0004.97,0002.03,0001.53
2022-12-15 02:44:00,,0817.4,5.05,0.00,21.4,20.1,00.0,30.2,23.1,06.2,0000.0,0005.11,0002.05,0001.53
2022-12-15 02:45:00,,0817.5,4.95,0.00,21.4,20.1,00.0,30.2,23.1,06.2,0000.0,0005.20,0002.06,0001.53
2022-12-15 02:46:00,,0817.4,5.04,0.00,21.4,20.0,00.0,30.2,23.1,06.2,0000.0,0005.19,0002.04,0001.54
2022-12-15 02:47:00,,0817.5,4.96,0.00,21.4,20.0,00.0,30.2,23.0,06.2,0000.0,0005.32,0002.05,0001.54
2022-12-15 02:48:00,,0817.4,5.04,0.00,21.3,19.9,00.0,30.2,23.0,06.2,0000.0,0005.11,0002.06,0001.55
2022-12-15 02:49:00,,0817.5,4.96,0.00,21.3,19.8,00.0,30.2,22.9,06.2,0000.0,0005.51,0002.07,0001.56
2022-12-15 02:50:00,,0817.5,5.01,0.00,21.3,20.6,00.0,30.2,23.1,06.3,0000.0,0005.75,0002.07,0001.59
2022-12-15 02:51:00,,0817.5,5.02,0.00,21.5,21.7,00.0,30.2,23.4,06.3,0000.0,0005.88,0002.08,0001.60
2022-12-15 02:52:00,,0817.5,4.97,0.00,21.6,21.8,00.0,30.2,23.5,06.2,0000.0,0005.81,0002.08,0001.61
2022-12-15 02:53:00,,0817.4,5.02,0.00,21.6,21.4,00.0,30.3,23.5,06.2,0000.0,0005.70,0002.08,0001.62
2022-12-15 02:54:00,,0817.4,5.01,0.00,21.6,21.1,00.0,30.3,23.4,06.1,0000.0,0004.91,0002.07,0001.63
2022-12-15 02:55:00,,0817.4,4.98,0.00,21.6,20.8,00.0,30.3,23.3,06.2,0000.0,0004.83,0002.09,0001.65
2022-12-15 02:56:00,,0817.4,5.01,0.00,21.5,20.5,00.0,30.3,23.3,06.3,0000.0,0004.97,0002.10,0001.67
2022-12-15 02:57:00,,0817.3,5.00,0.00,21.5,20.3,00.0,30.4,23.2,06.3,0000.0,0005.14,0002.12,0001.69
2022-12-15 02:58:00,,0817.3,4.98,0.00,21.5,20.2,00.0,30.4,23.2,06.3,0000.0,0004.89,0002.14,0001.70
2022-12-15 02:59:00,,0817.3,5.05,0.00,21.5,20.0,00.0,30.3,23.1,06.3,0000.0,0004.38,0002.14,0001.70
